Regional Weather Roundup
Issued by NWS Pendleton, OR

Home | Current Version | Previous Version | Text Only | Print | Product List | Glossary On
Versions: 1 2 3 4 5 6 7 8 9 10 11 12 13 14 15 16 17 18 19 20 21 22 23 24 25 26 27 28 29 30 31 32 33 34 35 36 37 38 39 40 41 42 43 44 45 46 47 48 49 50
000
ASUS46 KPDT 290925
RWRPDT
PENDLETON REGIONAL WEATHER ROUNDUP
NATIONAL WEATHER SERVICE PENDLETON OREGON
200 AM PDT TUE JUL 29 2014

NOTE: FAIR INDICATES FEW OR NO CLOUDS BELOW 12,000 FEET WITH NO
SIGNIFICANT WEATHER AND/OR OBSTRUCTIONS TO VISIBILITY.

# INDICATES UNOFFICIAL STATION AND DATA

WAZ520-291010-
EAST SLOPES OF WASHINGTON CASCADES

CITY            SKY/WX      TMP DP  RH  WIND    PRES   REMARKS
#BUMPING DAM    N/A         59  N/A N/A E3      N/A
#CLE ELUM HS    N/A         63  53  70  CALM    30.03S
#CLE ELUM LAKE  N/A         64  53  67  CALM    29.93S
#CLIFFDEL 2NW   N/A         61  50  67  N1      N/A
#GLENWOOD       N/A         56  53  90  CALM    29.96S
#MANASTASH CYN  N/A         63  50  62  CALM    30.08S
#NELSON         N/A         62  54  75  CALM    29.99S
#NELSON 3SW     N/A         60  45  58  CALM    30.16S
#NILE           N/A         63  52  67  CALM    29.28S
#TEANAWAY 4NE   N/A         60  54  81  CALM    N/A
#TROUT LAKE 1NE N/A         58  52  80  CALM    29.96S
$$

WAZ521-291010-
SIMCOE HIGHLANDS

CITY            SKY/WX      TMP DP  RH  WIND    PRES   REMARKS
#BICKLETON HS   N/A         74  36  25  N3      30.12S
#CENTERVILLE 1SWN/A         62  52  70  CALM    29.91R
#GOLDENDALE 1NE N/A         62  42  48  N3      N/A
#GOLDENDALE 1S  N/A         62  51  67  CALM    30.01S
#GOLDENDALE 5WNWN/A         68  56  65  NW3     29.92S
#GOODNOE HILLS  N/A         74  58  57  W10     29.94R
#LYLE 6NE       N/A         70  59  68  SE7     29.93S
$$

WAZ026-291010-
KITTITAS VALLEY

CITY            SKY/WX      TMP DP  RH  WIND    PRES   REMARKS
ELLENSBURG AP   CLEAR       75  52  45  N10     30.04S
#ELLENSBURG CWU N/A         72  53  51  N9      29.89F
#ELLENSBURG 3NE N/A         71  54  55  N1      30.03S
#ELLENSBURG 1E  N/A         71  49  46  CALM    N/A
#KITTITAS 3S    N/A         64  55  73  CALM    29.93S
#THORP 6N       N/A         66  52  61  N8      29.96S
$$

WAZ027-291010-
YAKIMA VALLEY

CITY            SKY/WX      TMP DP  RH  WIND    PRES   REMARKS
YAKIMA AIRPORT  CLEAR       78  53  42  NW8     30.00S
YAKIMA-VAGABOND CLEAR       76  45  33  E8      30.02S
#COWICHE 1N     N/A         74  53  48  NW8     30.14F
#DONALD 2NE     N/A         80  43  27  SE1     30.29S
#GRANDVIEW      N/A         68  55  63  CALM    29.92S
#MABTON         N/A         68  59  73  CALM    29.94S
#MOXEE 2E       N/A         73  46  38  CALM    29.92S
#NACHES 2SW     N/A         74  53  48  W12     30.04S
#TERRACE HTS    N/A         74  53  48  CALM    29.87F
#TOPPENISH      N/A         78  54  43  NW1     29.83S
#WAPATO 4NE     N/A         81  44  27  SE2     30.29S
#WEST VALLEY    N/A         78  54  43  N1      29.90S
#W YAKIMA       N/A         77  54  45  N2      29.91F
#WHITE SWAN 5E  N/A         68  57  68  NW2     29.92S
#WILEY CITY 3W  N/A         66  37  34  CALM    30.00R
$$

WAZ028-291010-
LOWER COLUMBIA BASIN...WASHINGTON

CITY            SKY/WX      TMP DP  RH  WIND    PRES   REMARKS
PASCO           CLEAR       64  60  87  N3      29.94R
PROSSER AWOS    N/A         63  55  75  N2      29.98S
RICHLAND AWOS   CLEAR       73  54  51  CALM    29.94R
#BASIN CITY 5SW N/A         66  57  73  CALM    29.94S
#BENTON CITY    N/A         71  54  55  W5      29.80F
#CONNELL 5N     N/A         67  43  42  CALM    29.90S
#CONNELL 5NW    N/A         73  44  35  CALM    29.87R
#ELTOPIA        N/A         68  50  53  CALM    29.88R
#ELTOPIA 6NW    N/A         71  53  53  E3      28.93R
#KENNEWICK 3S   N/A         81  46  29  CALM    29.91R
#PASCO-BROADMOORN/A         72  58  61  NE1     29.81S
#PATERSON       N/A         71  54  55  NE2     29.89S
#PROSSER        N/A         78  50  38  CALM    29.89F
#SAGEMOOR 2W    N/A         71  55  57  CALM    29.77R
#TOUCHET 2S     N/A         58  53  83  CALM    29.90R
#WEST PASCO     N/A         72  56  57  E1      29.91R
$$

WAZ029-291010-
FOOTHILLS OF THE BLUES...WASHINGTON

CITY            SKY/WX      TMP DP  RH  WIND    PRES   REMARKS
WALLA WALLA AP  CLEAR       80  46  30  E8      29.98S
#COLLEGE PLACE  N/A         74  51  44  NE3     29.94S
#DAYTON SCHOOL  N/A         71  43  36  N2      30.00S
#LOWDEN 2SE     N/A         67  53  61  E1      29.91R
#PLEASANT VIEW 1N/A         82  43  25  SW3     29.92S
#PRESCOTT       N/A         68  49  51  CALM    29.89S
#SUDBURY        N/A         66  N/A N/A NE2     N/A
#WHITMAN COLLEGEN/A         78  50  38  CALM    29.94S
#WAITSBURG 8N   N/A         64  30  28  CALM    29.82S
#WALLA WALLA 5E N/A         73  44  35  S15     N/A
#WALLA WALLA U  N/A         73  53  49  CALM    29.90S
#WHITMAN MISSIONN/A         66  56  70  CALM    29.92R
$$

WAZ030-291010-
BLUE MOUNTAINS...WASHINGTON

CITY            SKY/WX      TMP DP  RH  WIND    PRES   REMARKS
$$

ORZ009-041-WAZ024-291010-
COLUMBIA RIVER GORGE

CITY            SKY/WX      TMP DP  RH  WIND    PRES   REMARKS
HOOD RIVER AP   CLEAR       66  55  68  CALM    30.02S
THE DALLES AP   CLEAR       77  57  50  VRB3    29.97R
#ARLINGTON AIRPON/A         78  58  50  W12     N/A
#ARLINGTON HS   N/A         81  58  46  CALM    29.81S
#CELILO DOT     N/A         79  55  44  CALM    N/A
#MOSIER 1S      N/A         71  48  44  CALM    30.06S
#MURDOCK        N/A         80  60  51  W13G28  29.97R
#RUFUS DOT      N/A         77  61  58  N6      N/A

$$

ORZ510-291010-
NORTH CENTRAL OREGON

CITY            SKY/WX      TMP DP  RH  WIND    PRES   REMARKS
#CHENOWITH 1W   N/A         71  55  57  NW25    N/A
#COW CYN RST AREN/A         76  42  30  CALM    N/A
#DUFUR 9E       N/A         77  48  36  W7      29.96S
#GRASS VALLEY 1SN/A         67  44  43  CALM    29.95R
#KENT DOT       N/A         68  34  28  SW6     N/A
#MAUPIN SCHOOL  N/A         74  52  46  CALM    30.04R
#MORO SCHOOL    N/A         77  57  50  S7      30.05R
#SHANIKO 5WSW   N/A         75  36  24  CALM    N/A
#SHANIKO 4NW    N/A         76  40  27  NW3     30.17S
#TYGH VALLEY 2NEN/A         66  48  52  CALM    29.95S
#WAPANITIA AIRPON/A         72  51  48  NW3     29.95S
#WASCO 5NE      N/A         75  56  52  W6      29.91S
$$

ORZ511-291010-
CENTRAL OREGON

CITY            SKY/WX      TMP DP  RH  WIND    PRES   REMARKS
BEND AIRPORT    CLEAR       63  48  58  SW6     30.17F
MADRAS AIRPORT  CLEAR       63  50  62  S3      30.12S
REDMOND AIRPORT CLEAR       64  49  58  SW5     30.13S
#BEND 6E        N/A         67  47  49  CALM    29.86S
#BEND 1SW       N/A         58  44  60  SW1     N/A
#BEND-AWBREY    N/A         69  52  55  CALM    29.94F
#BEND-KIM LN    N/A         64  52  65  CALM    30.14F
#CULVER         N/A         69  52  55  CALM    30.08S
#LAKE BILLY CHINN/A         70  29  22  CALM    30.14S
#POWELL BUTTE 3EN/A         70  44  39  SW2     N/A
#POWELL BUTTE   N/A         68  45  44  SW3     29.79S
#PRINEVILLE 3N  N/A         61  46  58  CALM    29.91S


ORZ509-291010-
EAST SLOPES OF OREGON CASCADES

CITY            SKY/WX      TMP DP  RH  WIND    PRES   REMARKS
#BLUE BOX PASS  N/A         62   8  12  CALM    N/A
#BLACK BUTTE RNCN/A         59  53  80  CALM    29.97R
#CAMP SHERMAN   N/A         55  48  77  CALM    29.97F
#LA PINE DOT    N/A         55  43  64  CALM    N/A
#LA PINE 4NW    N/A         52  43  71  CALM    30.04R
#LAVA BUTTE DOT N/A         58  45  62  CALM    N/A
#SISTERS AIRPOR N/A         62  56  81  CALM    30.14S
#SISTERS ODOT   N/A         60  N/A N/A CALM    N/A
#SISTERS 3N     N/A         58  46  64  CALM    N/A
#SUNRIVER       N/A         54  50  86  CALM    29.90S
#SUNRIVER AP    N/A         52  49  89  CALM    29.98R
#TUMALO 3W      N/A         73  49  43  SW2     29.83S
#WANOGA BUTTE D N/A         65  40  40  NE2     N/A

$$

ORZ044-291010-
LOWER COLUMBIA BASIN...OREGON

CITY            SKY/WX      TMP DP  RH  WIND    PRES   REMARKS
HERMISTON       CLEAR       66  48  52  S5      29.95S
#BOARDMAN SCHOOLN/A         71  57  61  CALM    29.91S
#BOARDMAN 3W    N/A         68  58  70  CALM    29.62R
#BOARDMAN 8SW   N/A         74  57  55  SW5     29.91R
#IONE SCHOOL    N/A         69  44  40  CALM    29.98S
#IRRIGON 4NW    N/A         70  56  61  NE2     N/A
#UMATILLA SCHOOLN/A         69  59  70  SE2     29.98F
#UMATILLA       N/A         69  50  51  SE3     29.91F
$$

ORZ507-291010-
NORTHERN FOOTHILLS OF THE BLUES

CITY            SKY/WX      TMP DP  RH  WIND    PRES   REMARKS
PENDLETON AIRPT CLEAR       70  42  36  SE9     30.00S
#ADAMS 3WNW     N/A         66  46  48  CALM    29.91S
#ATHENA         N/A         63  48  58  CALM    29.93S
#HELIX SCHOOL   N/A         64  43  46  CALM    29.91S
#HELIX 3N       N/A         74  44  34  N7      30.00R
#HOLDMAN 5SE    N/A         70  43  38  CALM    30.00S
#HOLDMAN 6E     N/A         74  44  34  SW1     29.74S
#M-F FERNDALE   N/A         70  50  49  CALM    29.95S
#M-F GROVE ELEM N/A         78  45  31  S3      29.96S
#M-FREEWATER 5SEN/A         77  52  42  E2      29.98S
#PDT AQUATIC CTRN/A         69  45  42  CALM    29.95S
#PENDLETON DNTN N/A         68  40  36  CALM    29.95S
#PENDLETON 5NE  N/A         63  47  56  CALM    29.96S
#PDT SUNRIDGE   N/A         66  46  48  CALM    30.00S
#PENDLETON 7NW  N/A         67  46  47  CALM    28.90R
#PILOT ROCK     N/A         74  38  27  S5      30.04S
#TUTUILLA       N/A         63  52  67  CALM    29.87S
#UMAPINE 2E     N/A         72  53  51  SE2     29.92S
#WESTON SCHOOL  N/A         74  43  33  W1      30.00S

$$

ORZ508-291010-
SOUTHERN FOOTHILLS OF THE BLUES

CITY            SKY/WX      TMP DP  RH  WIND    PRES   REMARKS
#AJAX           N/A         N/A N/A N/A SW2     30.09S
#CONDON SCHOOL  N/A         71  43  36  CALM    30.06S
#CONDON 5W      N/A         74  43  33  W7      30.10S
#FOSSIL SCHOOL  N/A         64  41  43  CALM    30.08R
#HEPPNER 4NE    N/A         74  42  32  CALM    29.91S
#LEXINGTON 2SE  N/A         71  43  36  SE7     30.00S
#MIKKALO        N/A         69  45  42  SE1     30.03S
#OLEX 4N        N/A         74  53  48  SW8     29.97S
#RUGGS 5NE      N/A         67  37  33  SE2     30.27S
#RUGGS 2SW      N/A         73  41  31  S9      29.96S

$$

ORZ502-503-291010-
BLUE MOUNTAINS

CITY            SKY/WX      TMP DP  RH  WIND    PRES   REMARKS
MEACHAM         PTCLDY      52  47  83  CALM    30.17F
#BATTLE MTN DOT N/A         64  41  43  CALM    N/A
#HARDMAN 10S    N/A         64  39  40  CALM    30.23S
#HEPPNER 15SE   N/A         62  40  44  E1      30.11F
#LADD CYN SMT   N/A         61  36  39  CALM    N/A
#LADD CREEK ODOTN/A         68  44  42  S3      N/A
#LONG CREEK HS  N/A         64  42  45  CALM    30.11S
#PIKES PEAK     N/A         82  44  26  CALM    27.99S
#TOLLGATE 9W    N/A         70  46  42  SE2     N/A
#TROY SCHOOL    N/A         68  51  55  S1      29.80S
#UKIAH          N/A         51  44  77  CALM    30.00S
#WESTON 4E      N/A         74  45  35  E5      29.85S
$$

ORZ505-291010-
JOHN DAY BASIN

CITY            SKY/WX      TMP DP  RH  WIND    PRES   REMARKS
JOHN DAY        CLEAR       69  41  36  E10     30.16F
#MONUMENT HS    N/A         64  47  54  CALM    29.82R
#MT. VERNON 5SE N/A         69  37  31  CALM    30.13F
#WINLOCK        N/A         67  40  37  W3      30.19F
$$

ORZ506-291010-
OCHOCO AND JOHN DAY HIGHLANDS

CITY            SKY/WX      TMP DP  RH  WIND    PRES   REMARKS
#BUCK CREEK DOT N/A         71  41  34  W2      N/A
#HORSE RIDGE DO N/A         57  40  53  CALM    N/A
#KEYES SMT DOT  N/A         73  36  26  N5      N/A
#PINE MTN OBS   N/A         66  41  40  CALM    N/A
#PRAIRIE CITY   N/A         53  43  69  E1      30.16R
$$

ORZ049-291010-
GRANDE RONDE VALLEY

CITY            SKY/WX      TMP DP  RH  WIND    PRES   REMARKS
LA GRANDE       CLEAR       63  37  38  CALM    30.09S
#COVE           N/A         67  50  54  E5      30.01S
#COVE SCHOOL    N/A         67  48  50  E1      30.07S
#COVE 6NW       N/A         63  48  58  CALM    29.96S
#ELGIN 3N       N/A         62  44  52  CALM    29.83R
#ELGIN 1E       N/A         62  48  60  CALM    N/A
#IMBLER SCHOOL  N/A         68  49  51  CALM    30.04S
#ISLAND CITY 4N N/A         64  49  58  CALM    29.86S
#LADD CYN DOT   N/A         72  42  34  SE8     N/A
#UNION 1S       N/A         63  48  58  CALM    29.83S
$$

ORZ050-291010-
WALLOWA COUNTY

CITY            SKY/WX      TMP DP  RH  WIND    PRES   REMARKS
#ENTERPRISE AP  N/A         66  35  32  CALM    29.99S
#ENTERPRISE HS  N/A         61  49  65  CALM    30.15S
#IMNAHA 10S     N/A         75  43  32  SW3     30.09R
#JOSEPH 3N      N/A         56  49  77  CALM    30.18S
#JOSEPH 3W      N/A         72  37  28  SW1     30.05F
#LOSTINE        N/A         62  47  58  CALM    29.74S
#MT HOWARD 8000 N/A         64  35  34  CALM    30.49F
#PROMISE 1S     N/A         66  45  47  E1      30.03R
#SHEEP RDG 7000 N/A         67  35  30  CALM    29.91S
#WALLOWA SCHOOL N/A         58  51  77  CALM    30.81S



$$



USA.gov is the U.S. government's official web portal to all federal, state and local government web resources and services.